Wind_Speed
36 34 27 23 18 15 14 18 20 23 21 18 20 22 18 14 14 14 12 19 27 20 12 18 11 17 23 26 20 5 1 1 5 10 15 19 23 26 25 20 19 20 23 19
35 37 27 27 22 19 19 18 20 24 21 20 20 17 20 17 17 16 20 27 23 18 12 17 17 14 21 23 26 24 7 2 5 5 12 13 19 21 26 27 25 21 19 20
35 38 29 31 28 24 23 22 22 27 25 23 26 27 24 25 24 20 28 25 24 20 20 19 16 13 14 24 29 22 14 4 5 6 4 11 16 17 21 26 27 22 19 19
33 38 31 34 31 29 26 22 25 26 27 27 31 28 29 28 25 27 29 29 27 23 28 19 17 17 17 22 23 16 10 3 5 5 8 9 14 18 21 27 26 25 19 22
36 35 30 32 34 29 25 27 28 31 33 36 37 35 32 31 30 29 25 32 30 24 23 18 17 19 19 14 13 11 6 2 2 3 6 8 12 19 22 31 30 29 26 25
36 30 29 35 35 32 25 29 30 37 34 34 31 32 33 37 37 34 31 30 28 28 20 17 18 16 12 6 13 14 12 7 6 5 2 5 9 15 23 33 36 31 28 29
34 30 31 34 33 34 31 30 30 38 44 34 32 32 36 38 34 32 31 32 34 30 23 18 17 13 9 8 21 30 32 32 31 24 17 9 6 9 17 28 38 42 40 32
34 31 33 34 36 37 33 28 33 39 42 32 25 32 36 36 33 29 32 36 36 31 25 23 18 5 2 4 8 18 25 29 26 34 35 31 17 8 10 25 33 37 43 45
32 32 31 33 34 35 32 31 38 34 36 33 29 31 36 34 37 35 34 38 32 28 23 20 17 5 3 4 6 8 16 19 22 26 32 32 20 13 8 14 20 36 38 38
28 29 30 31 31 32 35 38 34 29 32 36 32 31 39 36 37 38 36 34 29 26 23 15 11 10 7 3 5 5 10 8 22 24 36 26 14 9 13 9 17 18 29 29
29 28 26 28 31 35 39 36 31 34 32 34 35 31 39 34 29 34 33 33 25 22 23 20 12 8 10 14 9 16 14 12 14 20 32 28 23 8 8 12 14 15 17 21
31 30 26 27 30 33 35 35 37 37 32 33 33 34 35 30 27 32 34 27 25 25 21 19 16 12 14 8 6 4 7 17 10 25 30 25 22 7 1 4 9 7 9 9
32 34 30 29 29 33 35 38 38 32 34 31 26 38 32 26 23 24 26 22 26 25 17 22 16 19 14 15 3 6 6 11 21 23 24 19 22 9 5 9 15 16 13 10
35 36 32 31 30 31 34 36 37 34 32 32 26 41 30 25 22 22 23 23 27 21 19 17 16 21 14 8 8 14 16 15 19 24 31 29 31 15 11 11 13 13 11 10
33 35 31 29 29 29 31 33 34 35 34 30 33 33 26 23 25 23 24 25 25 18 10 13 17 14 10 10 3 9 16 19 17 24 34 32 28 16 18 16 16 13 12 9
29 31 33 31 30 30 30 32 32 34 32 32 34 27 28 22 21 25 28 26 20 13 7 10 13 13 7 9 9 5 22 27 27 26 36 29 21 19 22 19 20 16 15 12
28 27 30 32 30 31 33 33 27 29 28 28 32 29 27 24 25 28 30 21 17 12 11 9 10 6 4 11 13 16 23 23 27 26 22 23 17 20 24 20 19 15 16 11
29 30 30 28 30 30 39 30 24 23 26 29 29 26 23 24 26 31 31 18 13 11 12 15 10 6 4 8 6 5 14 22 30 33 29 18 20 16 23 22 20 17 19 15
30 33 31 28 30 34 38 28 20 20 22 24 24 23 22 26 31 32 27 14 10 17 13 20 11 8 6 5 1 17 18 13 19 31 25 18 16 16 14 17 21 18 15 16
30 32 29 29 31 37 34 27 23 20 21 23 24 23 26 31 32 30 18 15 15 18 16 19 17 16 3 13 14 13 11 9 20 17 16 14 12 15 15 14 10 15 14 12
32 32 30 31 32 36 30 27 25 23 26 27 27 27 28 30 26 24 20 20 21 23 24 25 18 16 15 16 14 14 10 5 0 1 3 10 9 10 12 18 17 15 12 13
33 32 31 32 33 33 29 27 28 28 27 30 30 29 26 22 21 20 20 22 25 25 26 27 25 22 17 10 11 15 20 22 19 5 5 5 6 12 17 16 15 16 15 17
30 30 29 34 36 35 31 30 31 31 32 30 27 22 22 25 27 26 27 29 30 34 30 30 33 27 20 5 5 8 8 16 17 17 7 7 5 10 12 8 6 9 11 13
30 30 30 35 36 35 34 33 33 33 29 25 25 27 27 25 22 21 25 26 29 35 33 40 36 26 33 23 6 4 4 5 11 12 14 9 4 2 5 3 7 8 11 14
34 32 32 32 33 34 34 34 33 30 26 28 31 29 27 26 26 25 22 26 29 38 36 33 28 26 36 30 18 8 3 4 4 4 8 4 6 6 3 7 9 13 18 20
37 37 36 31 32 32 33 34 34 30 28 34 35 29 30 29 27 25 20 17 18 20 26 23 18 26 44 33 20 14 16 12 14 11 8 8 4 11 20 20 22 23 29 27
Wind_Direction
279 279 287 282 280 263 258 259 257 264 270 260 264 273 295 304 323 347 338 340 352 334 335 360 4 49 46 39 35 18 14 108 207 230 238 228 223 221 213 206 222 233 222 230
270 274 280 276 269 263 238 251 251 264 272 271 270 285 293 288 310 315 311 320 335 332 330 356 360 354 19 21 8 359 347 225 199 220 230 233 226 227 221 214 220 219 213 215
265 273 275 272 266 263 255 239 247 253 263 267 274 281 289 289 298 308 325 325 341 338 329 349 346 341 347 349 350 351 351 290 255 254 249 223 226 223 214 205 213 215 210 210
266 267 263 266 263 258 257 252 254 253 252 259 268 279 288 290 292 303 307 336 334 312 315 324 331 339 325 334 344 354 347 274 245 240 240 221 216 218 210 197 202 211 209 237
258 260 264 263 257 253 245 243 248 252 255 255 263 277 284 288 294 301 303 318 329 309 310 304 310 317 332 354 18 9 10 272 225 271 222 220 218 213 211 202 194 208 212 225
258 251 250 251 256 250 240 237 239 249 250 258 268 279 283 285 290 297 300 304 315 306 308 300 308 317 333 10 24 51 61 42 17 15 339 271 253 221 211 204 204 199 209 224
260 255 246 247 251 255 246 238 237 243 249 253 264 272 276 282 290 294 300 304 308 309 309 317 323 321 334 82 73 64 68 58 48 35 11 3 238 220 218 212 211 216 215 217
259 253 247 242 242 244 250 242 242 243 251 254 264 267 275 279 282 282 287 294 304 302 303 316 315 266 265 108 46 66 59 43 43 24 28 22 357 256 244 221 219 217 221 220
258 257 251 246 244 245 247 247 241 244 248 246 247 250 261 265 270 276 285 289 288 290 298 299 307 174 257 214 233 6 357 18 19 19 14 5 7 328 287 226 225 224 222 219
255 256 257 251 247 244 244 246 253 248 239 246 239 238 252 254 259 274 277 277 279 288 293 281 283 196 172 163 197 223 304 355 15 6 7 9 2 339 299 241 224 221 220 221
252 253 252 253 246 240 240 242 248 249 249 247 252 243 254 262 263 267 271 273 279 278 279 279 276 222 197 226 254 267 269 241 13 346 351 355 354 329 301 261 223 207 200 208
257 252 249 246 246 245 244 245 242 244 243 244 251 257 259 264 265 267 272 278 274 271 278 272 277 241 221 243 297 331 151 221 273 321 330 333 341 304 296 241 203 159 137 180
256 255 248 246 242 244 243 243 247 247 250 250 247 252 259 259 259 262 275 275 271 276 286 270 267 268 252 245 150 260 285 312 292 288 316 320 339 278 208 168 146 136 136 145
251 253 253 252 248 250 249 244 245 246 247 250 248 252 253 248 240 243 256 264 269 281 276 279 273 274 272 256 232 230 254 277 300 310 303 296 307 278 215 187 168 156 150 155
247 254 255 258 258 255 252 250 247 244 239 240 244 251 255 245 238 236 245 253 267 280 291 281 272 275 282 277 251 240 279 293 290 301 303 293 301 241 215 198 201 195 185 178
248 248 250 249 252 253 255 255 251 246 241 237 242 246 252 239 230 228 240 246 264 272 219 274 284 300 289 275 299 234 277 289 285 300 312 300 284 220 213 202 211 222 221 228
252 256 251 246 248 250 252 251 252 254 249 241 240 240 243 236 222 232 244 245 251 261 240 228 288 257 331 317 305 232 255 254 270 291 305 297 251 208 212 212 213 227 227 252
247 251 254 251 246 248 250 251 250 254 245 239 238 239 241 240 234 234 243 248 255 249 230 175 178 104 336 331 315 204 229 259 277 279 287 276 228 207 212 218 229 239 237 242
242 243 246 249 239 240 247 250 249 246 237 235 235 235 229 224 230 233 241 245 220 223 183 175 187 171 133 119 147 183 208 250 271 282 282 245 212 211 219 229 234 229 228 244
241 245 243 244 237 238 241 239 238 235 231 225 222 222 223 226 232 243 242 215 201 208 206 193 180 139 186 134 111 111 202 234 261 270 266 228 206 213 212 218 227 218 228 236
240 238 233 234 236 239 240 231 226 220 221 218 215 215 218 226 228 238 237 215 198 197 190 188 180 160 120 84 56 46 77 82 334 21 230 232 219 217 217 217 223 210 208 223
243 241 236 229 232 234 233 223 219 216 216 211 211 215 217 223 225 218 216 202 195 189 191 182 182 156 142 120 70 48 83 64 53 79 146 156 217 209 206 209 210 213 222 246
240 243 239 231 225 227 222 215 215 214 209 209 207 208 202 203 204 198 197 195 190 188 191 180 177 188 207 189 107 71 98 65 67 46 52 109 177 207 205 213 226 239 242 248
229 237 241 235 229 225 218 212 213 218 210 199 194 186 191 196 198 194 201 202 195 186 181 191 190 209 216 228 276 7 174 99 90 80 58 62 105 244 215 220 241 250 260 270
215 223 236 237 229 227 221 217 213 213 206 193 184 175 166 166 173 177 180 197 203 195 199 213 231 218 172 181 223 184 244 256 144 129 55 18 242 303 171 259 265 290 283 283
215 219 231 233 227 225 220 218 213 204 195 180 171 160 155 163 165 176 174 168 170 187 194 213 217 217 198 214 217 221 255 258 260 253 304 308 274 249 235 290 290 292 301 301
Height
10963 10965 10969 10968 10968 10969 10969 10969 10968 10968 10971 10972 10971 10972 10971 10970 10970 10971 10972 10972 10973 10973 10974 10974 10970 10967 10966 10965 10963 10962 10959 10957 10957 10957 10957 10960 10964 10968 10974 10978 10981 10984 10986 10989
10957 10956 10964 10961 10965 10965 10967 10966 10965 10964 10968 10968 10966 10968 10967 10968 10968 10970 10970 10972 10975 10975 10975 10973 10970 10966 10964 10963 10963 10961 10957 10955 10956 10956 10955 10956 10959 10963 10968 10974 10976 10980 10983 10986
10953 10949 10957 10955 10957 10959 10961 10963 10963 10962 10964 10964 10963 10965 10966 10965 10965 10967 10968 10968 10969 10972 10972 10968 10966 10964 10961 10960 10961 10960 10957 10953 10952 10952 10952 10953 10955 10959 10963 10968 10972 10977 10981 10984
10946 10942 10948 10946 10949 10950 10954 10957 10956 10957 10959 10961 10961 10963 10963 10962 10963 10965 10967 10966 10967 10967 10965 10963 10962 10961 10960 10960 10959 10957 10954 10952 10950 10950 10950 10951 10953 10955 10959 10964 10968 10972 10979 10981
10932 10936 10940 10938 10937 10943 10949 10952 10952 10951 10954 10956 10959 10960 10960 10959 10961 10964 10966 10965 10964 10965 10963 10961 10961 10960 10961 10960 10956 10953 10950 10949 10949 10949 10949 10949 10950 10951 10955 10960 10965 10968 10973 10974
10921 10928 10931 10927 10928 10932 10942 10944 10947 10944 10948 10950 10955 10954 10955 10954 10957 10959 10962 10961 10961 10961 10960 10959 10958 10959 10960 10959 10957 10952 10949 10950 10951 10950 10949 10948 10948 10950 10952 10956 10961 10964 10966 10970
10912 10918 10921 10921 10924 10925 10932 10937 10941 10939 10939 10948 10951 10950 10951 10950 10952 10954 10954 10954 10955 10958 10957 10955 10954 10955 10958 10959 10958 10953 10950 10951 10952 10950 10949 10948 10948 10948 10950 10953 10957 10959 10961 10967
10903 10907 10910 10913 10916 10917 10922 10932 10934 10933 10935 10946 10949 10947 10945 10945 10946 10949 10950 10950 10951 10954 10952 10950 10950 10953 10957 10958 10959 10953 10949 10950 10949 10948 10946 10947 10948 10947 10946 10948 10950 10952 10955 10961
10896 10898 10902 10905 10908 10912 10918 10921 10921 10929 10933 10941 10946 10942 10938 10941 10939 10943 10946 10945 10948 10949 10947 10946 10947 10951 10955 10954 10953 10949 10947 10944 10944 10944 10943 10943 10942 10944 10943 10943 10945 10948 10952 10957
10892 10893 10894 10897 10902 10906 10909 10911 10916 10923 10926 10927 10935 10937 10932 10936 10937 10936 10940 10941 10945 10943 10941 10943 10946 10951 10950 10948 10946 10945 10946 10944 10943 10943 10942 10941 10940 10939 10940 10941 10942 10944 10948 10953
10884 10887 10889 10890 10893 10894 10897 10903 10910 10911 10917 10921 10924 10930 10926 10930 10934 10932 10935 10935 10940 10939 10938 10937 10943 10946 10945 10943 10942 10940 10942 10941 10939 10940 10942 10940 10940 10940 10938 10938 10940 10942 10946 10949
10876 10878 10883 10883 10885 10888 10892 10896 10898 10901 10908 10912 10919 10923 10923 10927 10931 10927 10926 10932 10933 10933 10933 10933 10936 10939 10941 10940 10939 10936 10931 10930 10931 10935 10940 10939 10939 10940 10939 10939 10942 10944 10946 10948
10868 10869 10875 10877 10879 10879 10883 10886 10889 10897 10901 10908 10916 10910 10915 10922 10925 10925 10923 10924 10923 10925 10929 10927 10931 10930 10934 10934 10933 10934 10935 10936 10935 10936 10938 10938 10938 10939 10941 10943 10945 10945 10946 10948
10858 10861 10866 10870 10873 10876 10877 10880 10884 10890 10896 10899 10907 10898 10909 10915 10917 10918 10918 10918 10917 10920 10923 10923 10926 10924 10927 10929 10928 10926 10928 10931 10930 10930 10934 10935 10936 10937 10941 10944 10947 10947 10947 10948
10851 10853 10859 10862 10865 10868 10870 10873 10878 10882 10887 10894 10895 10897 10901 10907 10910 10911 10911 10912 10914 10916 10915 10918 10918 10921 10924 10925 10927 10932 10928 10929 10928 10928 10928 10929 10930 10931 10939 10942 10946 10947 10948 10948
10846 10848 10850 10854 10857 10859 10861 10865 10870 10875 10881 10885 10886 10894 10891 10899 10903 10903 10903 10909 10912 10913 10913 10914 10916 10918 10919 10923 10927 10930 10926 10926 10921 10922 10920 10921 10924 10927 10934 10938 10943 10946 10947 10947
10841 10843 10845 10848 10852 10854 10854 10855 10864 10868 10873 10878 10880 10885 10888 10892 10895 10896 10897 10906 10909 10908 10911 10913 10915 10913 10917 10920 10922 10924 10920 10918 10914 10916 10918 10920 10922 10924 10929 10932 10938 10942 10944 10944
10835 10836 10839 10842 10845 10846 10841 10851 10857 10863 10866 10869 10873 10878 10883 10885 10888 10890 10892 10901 10904 10906 10906 10910 10914 10914 10914 10914 10917 10916 10919 10916 10912 10915 10918 10918 10920 10921 10924 10928 10934 10937 10938 10939
10828 10829 10832 10836 10839 10836 10836 10846 10852 10855 10860 10862 10866 10871 10876 10878 10879 10884 10891 10899 10902 10902 10904 10907 10912 10914 10915 10918 10919 10916 10918 10917 10914 10912 10913 10915 10916 10918 10922 10926 10931 10933 10934 10935
10821 10822 10826 10829 10831 10829 10835 10842 10844 10848 10851 10854 10858 10863 10867 10871 10876 10881 10889 10894 10896 10898 10900 10903 10909 10911 10915 10919 10919 10917 10915 10913 10912 10910 10911 10913 10914 10915 10920 10926 10930 10931 10932 10933
10812 10815 10818 10821 10823 10825 10832 10835 10837 10840 10841 10845 10850 10854 10859 10863 10870 10876 10882 10886 10889 10892 10897 10901 10904 10910 10914 10916 10917 10914 10913 10913 10911 10909 10911 10912 10910 10912 10917 10923 10928 10928 10928 10929
10806 10809 10811 10813 10816 10819 10825 10828 10831 10831 10835 10838 10842 10847 10854 10860 10865 10870 10877 10880 10884 10889 10892 10896 10904 10911 10913 10914 10915 10915 10912 10912 10910 10910 10910 10906 10908 10913 10917 10920 10922 10923 10924 10925
10801 10803 10805 10805 10807 10811 10816 10820 10823 10826 10828 10833 10838 10843 10848 10854 10858 10861 10866 10871 10877 10884 10893 10899 10902 10906 10911 10911 10913 10913 10912 10908 10908 10908 10907 10908 10911 10915 10916 10918 10921 10921 10920 10920
10794 10796 10797 10797 10802 10807 10810 10814 10818 10822 10827 10832 10834 10837 10841 10847 10853 10858 10862 10868 10876 10883 10890 10894 10899 10898 10905 10907 10905 10906 10909 10904 10902 10901 10905 10908 10912 10914 10915 10917 10918 10918 10918 10917
10783 10786 10787 10790 10799 10803 10808 10812 10815 10819 10827 10828 10831 10835 10839 10844 10849 10855 10861 10864 10868 10880 10888 10889 10891 10896 10898 10902 10905 10902 10903 10904 10900 10902 10900 10905 10907 10910 10911 10913 10914 10914 10912 10910
10775 10778 10779 10785 10791 10798 10805 10809 10811 10817 10823 10830 10833 10836 10837 10841 10846 10853 10857 10859 10863 10870 10875 10882 10884 10886 10893 10897 10897 10900 10899 10898 10897 10896 10898 10900 10900 10902 10903 10905 10906 10903 10901 10900